Rantoul, IL

11:50 PM CDT on April 30, 2017 (GMT -0500)
Rantoul

Weather History for KTIP - November, 2012

Change the Weather History Date:

Thursday, November 1, 2012

  Actual Average (KCMI) Record (KCMI)
Temperature  
Mean Temperature 42 °F -  
Max Temperature 57 °F 55 °F 81 °F (2016)
Min Temperature 29 °F 37 °F 24 °F (1996)
Degree Days  
Heating Degree Days 22    
Moisture  
Dew Point 28 °F    
Average Humidity 62    
Maximum Humidity 85    
Minimum Humidity 25    
Precipitation  
Precipitation 0.00 in - - ()
Sea Level Pressure  
Sea Level Pressure 29.89 in    
Wind  
Wind Speed 8 mph (West)    
Max Wind Speed 15 mph    
Max Gust Speed 20 mph    
Visibility 10 miles    
Events      
Averages and records for this station are not official NWS values.
T = Trace of Precipitation, MM = Missing Value Source: NWS Daily Summary

Daily Weather History Graph

Daily Weather History Graph

Search for Another Location

Airport or City:

Trip Planner

Search our weather history database for the weather conditions in past years. The results will help you decide how hot, cold, wet, or windy it might be!

Date:

Astronomy

Nov. 01, 2012 Rise Set
Actual Time 7:22 AM CDT 5:49 PM CDT
Civil Twilight 6:54 AM CDT 6:17 PM CDT
Nautical Twilight 6:22 AM CDT 6:49 PM CDT
Astronomical Twilight 5:50 AM CDT 7:21 PM CDT
Moon 7:45 PM CDT 9:55 AM CDT
Length of Visible Light 11h 22m
Length of Day
10h 26m
Waning Gibbous, 93% of the Moon is Illuminated
Nov 1
Waning Gibbous
Nov 6
Last Quarter
Nov 13
New
Nov 20
First Quarter
Nov 28
Full

Hourly Weather History & Observations

Time (CDT) Temp. Windchill Dew Point Humidity Pressure Visibility Wind Dir Wind Speed Gust Speed Precip Events Conditions
12:15 AM 31.5 °F 24.2 °F 25.3 °F 78% 29.90 in 10.0 mi West 8.1 mph - N/A   Clear
12:35 AM 31.5 °F 24.2 °F 24.8 °F 76% 29.90 in 10.0 mi WNW 8.1 mph - N/A   Clear
12:55 AM 31.5 °F 24.2 °F 24.8 °F 76% 29.90 in 10.0 mi WNW 8.1 mph - N/A   Clear
1:15 AM 32.0 °F 24.2 °F 24.8 °F 75% 29.90 in 10.0 mi WNW 9.2 mph - N/A   Clear
1:35 AM 31.8 °F 24.6 °F 24.8 °F 75% 29.90 in 10.0 mi WNW 8.1 mph - N/A   Clear
1:55 AM 31.6 °F 24.4 °F 24.6 °F 75% 29.90 in 10.0 mi WNW 8.1 mph - N/A   Clear
2:15 AM 30.9 °F 24.3 °F 24.3 °F 76% 29.90 in 10.0 mi WNW 6.9 mph - N/A   Clear
2:35 AM 30.4 °F 22.9 °F 24.3 °F 78% 29.91 in 10.0 mi WNW 8.1 mph - N/A   Clear
2:55 AM 30.7 °F 23.3 °F 24.4 °F 77% 29.91 in 10.0 mi West 8.1 mph - N/A   Clear
3:15 AM 30.0 °F 22.4 °F 24.6 °F 80% 29.91 in 10.0 mi West 8.1 mph - N/A   Clear
3:35 AM 29.3 °F 21.5 °F 24.8 °F 83% 29.91 in 10.0 mi West 8.1 mph - N/A   Clear
3:55 AM 29.5 °F 21.8 °F 24.8 °F 83% 29.91 in 10.0 mi West 8.1 mph - N/A   Clear
4:15 AM 29.5 °F 22.5 °F 24.4 °F 81% 29.91 in 10.0 mi WNW 6.9 mph - N/A   Clear
4:35 AM 30.9 °F 23.5 °F 25.3 °F 80% 29.91 in 10.0 mi WNW 8.1 mph - N/A   Clear
4:55 AM 31.6 °F 24.4 °F 25.3 °F 78% 29.91 in 10.0 mi WNW 8.1 mph - N/A   Clear
5:15 AM 31.1 °F 23.7 °F 25.2 °F 79% 29.91 in 10.0 mi WNW 8.1 mph - N/A   Clear
5:35 AM 31.1 °F 23.1 °F 24.8 °F 77% 29.91 in 10.0 mi WNW 9.2 mph - N/A   Clear
5:55 AM 30.2 °F 21.9 °F 24.8 °F 80% 29.91 in 10.0 mi West 9.2 mph - N/A   Clear
6:15 AM 31.6 °F 24.4 °F 25.2 °F 77% 29.91 in 10.0 mi WNW 8.1 mph - N/A   Scattered Clouds
6:35 AM 31.5 °F 23.5 °F 24.8 °F 76% 29.92 in 10.0 mi WNW 9.2 mph - N/A   Clear
6:55 AM 31.5 °F 23.5 °F 24.8 °F 76% 29.92 in 10.0 mi West 9.2 mph - N/A   Clear
7:15 AM 31.1 °F 23.7 °F 24.6 °F 77% 29.92 in 10.0 mi WNW 8.1 mph - N/A   Clear
7:35 AM 31.1 °F 24.5 °F 24.8 °F 77% 29.93 in 10.0 mi West 6.9 mph - N/A   Scattered Clouds
7:55 AM 32.0 °F 24.8 °F 25.3 °F 76% 29.93 in 10.0 mi West 8.1 mph - N/A   Scattered Clouds
8:15 AM 32.0 °F 24.8 °F 26.6 °F 80% 29.94 in 10.0 mi West 8.1 mph - N/A   Scattered Clouds
8:35 AM 34.2 °F 27.5 °F 26.6 °F 74% 29.94 in 10.0 mi West 8.1 mph - N/A   Clear
8:55 AM 37.2 °F 31.2 °F 27.3 °F 67% 29.94 in 10.0 mi West 8.1 mph - N/A   Clear
9:15 AM 39.9 °F 33.9 °F 28.0 °F 63% 29.94 in 10.0 mi WNW 9.2 mph - N/A   Clear
9:35 AM 41.7 °F 37.3 °F 27.5 °F 57% 29.94 in 10.0 mi West 6.9 mph - N/A   Clear
9:55 AM 43.3 °F 38.6 °F 27.0 °F 52% 29.93 in 10.0 mi West 8.1 mph - N/A   Clear
10:15 AM 45.3 °F 40.6 °F 25.9 °F 47% 29.94 in 10.0 mi West 9.2 mph - N/A   Clear
10:35 AM 47.3 °F - 25.3 °F 42% 29.95 in 10.0 mi West 13.8 mph - N/A   Clear
10:55 AM 49.1 °F - 25.2 °F 39% 29.95 in 10.0 mi West 10.4 mph - N/A   Clear
11:15 AM 50.4 °F - 23.5 °F 35% 29.95 in 10.0 mi West 11.5 mph 16.1 mph N/A   Clear
11:35 AM 52.0 °F - 22.8 °F 32% 29.94 in 10.0 mi WNW 12.7 mph - N/A   Clear
11:55 AM 53.4 °F - 21.4 °F 29% 29.94 in 10.0 mi West 13.8 mph 17.3 mph N/A   Scattered Clouds
12:15 PM 53.6 °F - 20.5 °F 27% 29.93 in 10.0 mi WNW 15.0 mph 19.6 mph N/A   Scattered Clouds
12:35 PM 54.7 °F - 18.9 °F 25% 29.92 in 10.0 mi West 13.8 mph 18.4 mph N/A   Clear
12:55 PM 54.5 °F - 19.9 °F 26% 29.91 in 10.0 mi West 12.7 mph - N/A   Clear
1:15 PM 56.1 °F - 22.1 °F 27% 29.91 in 10.0 mi West 13.8 mph - N/A   Clear
1:35 PM 55.9 °F - 23.4 °F 28% 29.89 in 10.0 mi West 12.7 mph 17.3 mph N/A   Scattered Clouds
1:55 PM 56.3 °F - 25.5 °F 31% 29.89 in 10.0 mi West 11.5 mph - N/A   Mostly Cloudy
2:15 PM 55.8 °F - 26.4 °F 32% 29.88 in 10.0 mi West 11.5 mph - N/A   Scattered Clouds
2:35 PM 55.6 °F - 27.1 °F 34% 29.88 in 10.0 mi West 9.2 mph - N/A   Unknown
2:55 PM 55.8 °F - 27.9 °F 34% 29.87 in 10.0 mi West 10.4 mph - N/A   Clear
3:15 PM 55.4 °F - 28.4 °F 36% 29.87 in 10.0 mi West 11.5 mph - N/A   Clear
3:35 PM 55.4 °F - 29.5 °F 37% 29.86 in 10.0 mi West 11.5 mph - N/A   Clear
3:55 PM 55.4 °F - 30.2 °F 38% 29.86 in 10.0 mi West 8.1 mph - N/A   Scattered Clouds
4:15 PM 55.6 °F - 31.6 °F 40% 29.86 in 10.0 mi SW 6.9 mph - N/A   Scattered Clouds
4:35 PM 55.2 °F - 32.0 °F 41% 29.85 in 10.0 mi SW 5.8 mph - N/A   Scattered Clouds
4:55 PM 55.4 °F - 32.0 °F 41% 29.85 in 10.0 mi West 3.5 mph - N/A   Scattered Clouds
5:15 PM 54.5 °F - 35.1 °F 48% 29.85 in 10.0 mi SW 3.5 mph - N/A   Scattered Clouds
5:35 PM 53.1 °F - 35.1 °F 50% 29.84 in 10.0 mi SSW 3.5 mph - N/A   Clear
5:55 PM 52.7 °F - 34.2 °F 49% 29.84 in 10.0 mi Calm Calm - N/A   Clear
6:15 PM 51.8 °F - 33.8 °F 50% 29.84 in 10.0 mi Calm Calm - N/A   Clear
6:35 PM 49.5 °F - 34.5 °F 56% 29.84 in 10.0 mi SW 4.6 mph - N/A   Clear
6:55 PM 48.0 °F - 35.6 °F 62% 29.85 in 10.0 mi SW 4.6 mph - N/A   Clear
7:15 PM 47.1 °F - 35.8 °F 65% 29.85 in 10.0 mi Calm Calm - N/A   Clear
7:35 PM 46.8 °F - 37.2 °F 69% 29.85 in 10.0 mi SW 5.8 mph - N/A   Clear
7:55 PM 47.5 °F - 36.7 °F 66% 29.85 in 10.0 mi NNW 9.2 mph - N/A   Clear
8:15 PM 48.2 °F - 37.0 °F 65% 29.86 in 10.0 mi WNW 4.6 mph - N/A   Clear
8:35 PM 47.8 °F - 37.6 °F 68% 29.86 in 10.0 mi West 5.8 mph - N/A   Clear
8:55 PM 46.4 °F 43.5 °F 37.4 °F 71% 29.86 in 10.0 mi West 5.8 mph - N/A   Clear
9:15 PM 44.2 °F 41.0 °F 36.9 °F 75% 29.86 in 10.0 mi West 5.8 mph - N/A   Clear
9:35 PM 43.5 °F 40.1 °F 36.7 °F 77% 29.86 in 10.0 mi West 5.8 mph - N/A   Clear
9:55 PM 42.3 °F 38.6 °F 37.0 °F 82% 29.87 in 10.0 mi WNW 5.8 mph - N/A   Clear
10:15 PM 41.7 °F 38.0 °F 36.3 °F 81% 29.87 in 10.0 mi WNW 5.8 mph - N/A   Clear
10:35 PM 40.8 °F 36.2 °F 36.7 °F 85% 29.87 in 10.0 mi WNW 6.9 mph - N/A   Clear
10:55 PM 41.0 °F 35.8 °F 36.3 °F 83% 29.86 in 10.0 mi WNW 8.1 mph - N/A   Clear
11:15 PM 40.3 °F 35.5 °F 35.6 °F 83% 29.86 in 10.0 mi WNW 6.9 mph - N/A   Clear
11:35 PM 39.2 °F 33.6 °F 34.5 °F 83% 29.87 in 10.0 mi WNW 8.1 mph - N/A   Clear
11:55 PM 38.8 °F 34.6 °F 33.8 °F 82% 29.87 in 10.0 mi NW 5.8 mph - N/A   Clear